星链-6149 (STARLINK-6149 )

导读

STARLINK-6149是美国太空探索技术公司(SpaceX)星链星座的一员,于2023年6月23日发射入轨。星链计划旨在搭建全球卫星互联网星座,为全球提供高速低延迟互联网服务,该卫星承担着扩展星座覆盖范围、提升星座服务容量与稳定性的任务。

Basic Information
目录编号:
57122
目录名称:
STARLINK-6149
国际标识:
2023-090X
轨道中心:
EARTH
卫星名称:
星链-6149
卫星全名:
星链-6149 (STARLINK-6149 )
卫星状态:
在轨 (已飞行1176 天)
发射日期:
2023-06-23 UTC
国别 :
美国 (US)
星等 :
--
This satellite is enrolled in the Space Conjunction Data Service (SCDS) and the current flight risk assessment level is: High Risk
Orbit Information
数据来源 国际轨道数据 AOE轨道数据
星历时间 2026-09-11T13:21:33+0800
9小时前
查看轨道信息
2026-09-10T06:00:00+0800
1天前
查看轨道信息
半长轴 6861.208km 6861.18km
偏心率 0.0001516 0.0001537
轨道倾角 43.005° 43.004°
近地点辐角 285.155° 275.514°
升交点赤经 314.071° 321.452°
平近点角 74.913° 90.594°
近地点 482.03km 481.988km
远地点 484.112km 484.098km
周期 94.267分钟 94.267分钟
每日圈数 15.275729 15.275821
Detailed Information
固有亮度:
5
最大亮度:
2.4
卫星平台:
Starlink v1.5
覆盖范围:
全球
运营商:
太空探索技术公司
运营商所在国:
美国
制造商(研发单位):
太空探索技术公司
制造商所在国:
美国
使用方式:
暂无
Satellite Introduction
星链(Starlink)计划是由太空探索技术公司(SpaceX)提出的一个巨型低轨卫星互联网星座项目,计划在2019年至2024年间在太空搭建由约1.2万颗卫星组成的“星链”网络,其中1584颗将部署在地球上空550千米处的近地轨道,并从2020年开始工作。该卫星仍在工作。
2D Orbit Map
3D Orbit Map
Orbit Altitude Analysis Chart
Orbit Inclination Analysis Chart
Orbit Comprehensive Analysis Chart
View Comprehensive Chart
Conjunction Data List
Event ID Objects TCA Miss Dist (km) Collision Risk Probability Collision Risk Index (CRI) Action
CDM_260913-084605-712206-646121
2026-09-13T
08:46:33+0000
0.140 km
中距离
5.719938E-4 高风险 0.9
CDM_260911-054005-712206-185521
2026-09-11T
05:40:46+0000
0.353 km
远距离
2.079051E-4 高风险 0.81
CDM_260912-035105-712206-399621
2026-09-12T
03:51:03+0000
0.967 km
远距离
1.6899E-5 中风险 0.6
CDM_260911-014505-712206-185521
2026-09-11T
01:45:22+0000
1.304 km
极远距离
4.338826E-6 低风险 0.48
CDM_260913-053505-712205-913222
2026-09-13T
05:35:38+0000
1.644 km
极远距离
4.188959E-6 低风险 0.47
CDM_260913-124105-712206-646121
2026-09-13T
12:41:56+0000
1.200 km
极远距离
2.988467E-6 低风险 0.45
CDM_260911-222105-712206-399621
2026-09-11T
22:21:31+0000
1.786 km
极远距离
2.275428E-6 低风险 0.42
CDM_260913-110705-712206-646121
2026-09-13T
11:07:47+0000
1.321 km
极远距离
2.196178E-6 低风险 0.42
CDM_260912-122602-565505-712221
SL-3 DEB (25655)
2026-09-12T
12:26:47+0000
2.150 km
极远距离
1.869581E-6 低风险 0.4
CDM_260911-204705-712206-399621
2026-09-11T
20:47:22+0000
1.952 km
极远距离
1.803142E-6 低风险 0.4
Miss Distance Evolution Trend with All Objects
Collision Probability Evolution Trend with All Objects